Regional Weather Roundup
Issued by NWS

Home | Current Version | Previous Version | Text Only | Print | Product List | Glossary Off
Versions: 1 2 3 4 5 6 7 8 9 10 11 12 13 14 15 16 17 18 19 20 21 22 23 24 25 26 27

000
ASUS45 KCYS 282210
RWRWY

WYOMING REGIONAL WEATHER ROUNDUP
NATIONAL WEATHER SERVICE CHEYENNE WY
400 PM MDT FRI APR 28 2017

NOTE:  "FAIR" INDICATES FEW OR NO CLOUDS BELOW 12,000 FEET
WITH NO SIGNIFICANT WEATHER AND/OR OBSTRUCTIONS TO VISIBILITY.

WYZ001-282300-
YELLOWSTONE NATIONAL PARK

CITY           SKY/WX    TMP DP  RH WIND       PRES   REMARKS
LK YELLOWSTONE   N/A     33  25  72 VRB7      29.96R WCI  27
W YELLOWSTONE  NOT AVBL

$$
WYZ002>013-054>058-071-098>099-282300-
NORTHERN WYOMING

CITY           SKY/WX    TMP DP  RH WIND       PRES   REMARKS
JACKSON        PTSUNNY   39  28  65 N12G17    29.88R WCI  32
CODY           PTSUNNY   38  31  76 NW15G22   30.03R WCI  29
GREYBULL       CLOUDY    47  19  33 N16       29.96R
WORLAND        LGT RAIN  40  34  79 S9        29.99R WCI  34
SHERIDAN       CLOUDY    36  33  89 SW5       30.08R WCI  32
BUFFALO        LGT SNOW  34  29  82 W9        30.06R WCI  27
GILLETTE       PTSUNNY   37  31  78 NW5       30.04R WCI  33
HULETT         MOCLDY    43  27  52 E10       30.04R
NEWCASTLE      FAIR      41  21  45 NE7       30.00S

$$
WYZ014>020-022>026-101>103-282300-
CENTRAL WYOMING

CITY           SKY/WX    TMP DP  RH WIND       PRES   REMARKS
BIG PINEY      PTSUNNY   35  28  75 S17       29.87R WCI  25
PINEDALE       FAIR      36  18  48 NE18G26   29.87R WCI  25
DUBOIS         CLOUDY    32  27  80 S20       29.90R WCI  20
LANDER         LGT SNOW  32  30  92 N12       29.96R FOG     WCI  23
RIVERTON       LGT SNOW  32  31  96 N10       29.96R VSB 1   WCI  24
CASPER         LGT SNOW  32  29  88 E28G33    29.95R FOG     WCI  18
DOUGLAS        LGT SNOW  31  28  89 E21G31    29.98R VSB 1   WCI  18

$$
WYZ021-027>030-104>119-282300-
SOUTHERN WYOMING

CITY           SKY/WX    TMP DP  RH WIND       PRES   REMARKS
EVANSTON       CLOUDY    33  29  85 NW20G25   29.85S WCI  21
KEMMERER       HVY SNOW  30  30 100 E14G21    29.86R VSB<1/4 WCI  20
FORT BRIDGER   HVY SNOW  30  30 100 NE18G28   29.88R VSB<1/4 WCI  18
ROCK SPRINGS   CLOUDY    36  27  69 NE24      29.85R WCI  24
DIXON            N/A     41  25  52 W3        29.81F
RAWLINS        LGT SNOW  33  28  81 N14       29.82R WCI  23
SARATOGA       CLOUDY    34  27  75 N14       29.80R WCI  24
LARAMIE        CLOUDY    31  23  72 E26       29.79R WCI  17
CHEYENNE       LGT SNOW  30  27  88 NE18G24   29.85R FOG     WCI  18
TORRINGTON     LGT SNOW  33  31  92 NE21G29   29.95R FOG     WCI  21
PINE BLUFFS    CLOUDY    32  32 100 E16G23    29.88R WCI  21

$$




USA.gov is the U.S. government's official web portal to all federal, state and local government web resources and services.